Morgantown, WV

10:27 AM EDT on April 23, 2018 (GMT -0400)
Morgantown Municipal-Hart

Weather History for KMGW - September, 2011

Change the Weather History Date:

Thursday, September 22, 2011

  Actual Average Record
Temperature  
Mean Temperature 69 °F 63 °F  
Max Temperature 77 °F 73 °F 91 °F (1965)
Min Temperature 61 °F 52 °F 34 °F (1904)
Degree Days  
Heating Degree Days 0 4  
Month to date heating degree days 52 44  
Since 1 July heating degree days 52 55  
Cooling Degree Days 4 2  
Month to date cooling degree days 89 80  
Year to date cooling degree days 990 789  
Growing Degree Days 20 (Base 50)    
Moisture  
Dew Point 62 °F    
Average Humidity 76    
Maximum Humidity 93    
Minimum Humidity 58    
Precipitation  
Precipitation 0.01 in 0.11 in 2.90 in (1919)
Month to date precipitation 6.47 2.35  
Year to date precipitation 43.90 31.82  
Sea Level Pressure  
Sea Level Pressure 30.11 in    
Wind  
Wind Speed 3 mph (SW)    
Max Wind Speed 8 mph    
Max Gust Speed 13 mph    
Visibility 10 miles    
Events      
T = Trace of Precipitation, MM = Missing Value Source: NWS Daily Summary

Daily Weather History Graph

Daily Weather History Graph

Search for Another Location

Airport or City:

Astronomy

Sep. 22, 2011 Rise Set
Actual Time 7:07 AM EDT 7:17 PM EDT
Civil Twilight 6:40 AM EDT 7:44 PM EDT
Nautical Twilight 6:08 AM EDT 8:15 PM EDT
Astronomical Twilight 5:36 AM EDT 8:47 PM EDT
Moon 1:27 AM EDT (9/22) 4:07 PM EDT (9/22)
Length of Visible Light 13h 03m
Length of Day
12h 10m
Waning Crescent, 29% of the Moon is Illuminated
Sep 22
Waning Crescent
Sep 27
New
Oct 3
First Quarter
Oct 11
Full
Oct 19
Last Quarter

Hourly Weather History & Observations

Time (EDT) Temp. Dew Point Humidity Pressure Visibility Wind Dir Wind Speed Gust Speed Precip Events Conditions
12:53 AM 64.9 °F 63.0 °F 93% 30.06 in 10.0 mi Calm Calm - N/A   Mostly Cloudy
1:53 AM 68.0 °F 62.1 °F 81% 30.06 in 10.0 mi SW 3.5 mph - N/A   Mostly Cloudy
2:53 AM 64.9 °F 63.0 °F 93% 30.06 in 10.0 mi SSW 3.5 mph - 0.01 in   Overcast
3:53 AM 64.9 °F 62.1 °F 90% 30.06 in 10.0 mi South 3.5 mph - N/A   Mostly Cloudy
4:53 AM 66.0 °F 62.1 °F 87% 30.06 in 10.0 mi Variable 4.6 mph - N/A   Overcast
5:24 AM 66.2 °F 62.6 °F 88% 30.09 in 10.0 mi Calm Calm - N/A   Overcast
5:41 AM 66.2 °F 62.6 °F 88% 30.09 in 10.0 mi SSW 4.6 mph - N/A   Overcast
5:53 AM 66.9 °F 63.0 °F 87% 30.07 in 10.0 mi SSW 4.6 mph - N/A   Overcast
6:22 AM 66.2 °F 62.6 °F 88% 30.10 in 10.0 mi SSW 3.5 mph - N/A   Overcast
6:53 AM 66.0 °F 63.0 °F 90% 30.09 in 10.0 mi SSW 3.5 mph - N/A   Overcast
7:53 AM 66.0 °F 64.0 °F 93% 30.11 in 10.0 mi South 4.6 mph - N/A   Overcast
8:53 AM 66.2 °F 64.4 °F 94% 30.13 in 10.0 mi Variable 5.8 mph - N/A   Overcast
9:53 AM 69.1 °F 64.0 °F 84% 30.13 in 9.0 mi SSW 3.5 mph - N/A   Overcast
10:29 AM 69.8 °F 64.4 °F 83% 30.15 in 9.0 mi WSW 4.6 mph - N/A   Overcast
10:53 AM 70.0 °F 64.0 °F 81% 30.13 in 8.0 mi Variable 3.5 mph - N/A   Scattered Clouds
11:53 AM 71.6 °F 62.6 °F 73% 30.16 in 9.0 mi Variable 3.5 mph - N/A   Scattered Clouds
12:03 PM 71.6 °F 64.4 °F 78% 30.16 in 9.0 mi Variable 4.6 mph - N/A   Mostly Cloudy
12:35 PM 73.4 °F 62.6 °F 69% 30.16 in 10.0 mi SW 5.8 mph - N/A   Overcast
12:53 PM 73.9 °F 64.0 °F 71% 30.14 in 9.0 mi WSW 4.6 mph - N/A   Mostly Cloudy
1:03 PM 73.4 °F 62.6 °F 69% 30.16 in 9.0 mi Variable 3.5 mph - N/A   Mostly Cloudy
1:53 PM 75.0 °F 63.0 °F 66% 30.13 in 10.0 mi West 4.6 mph - N/A   Scattered Clouds
2:53 PM 75.9 °F 62.1 °F 62% 30.12 in 10.0 mi West 5.8 mph - N/A   Scattered Clouds
3:53 PM 75.9 °F 61.0 °F 60% 30.11 in 10.0 mi Calm Calm - N/A   Clear
4:53 PM 75.9 °F 59.0 °F 56% 30.09 in 10.0 mi Calm Calm - N/A   Clear
5:53 PM 75.0 °F 59.0 °F 57% 30.09 in 10.0 mi Calm Calm - N/A   Clear
6:53 PM 73.0 °F 61.0 °F 66% 30.09 in 10.0 mi Calm Calm - N/A   Clear
7:53 PM 66.9 °F 62.1 °F 84% 30.10 in 10.0 mi SE 4.6 mph - N/A   Clear
8:53 PM 64.9 °F 62.1 °F 90% 30.11 in 9.0 mi Calm Calm - N/A   Clear
9:53 PM 64.9 °F 61.0 °F 87% 30.10 in 10.0 mi Calm Calm - N/A   Clear
10:53 PM 64.9 °F 61.0 °F 87% 30.09 in 9.0 mi Calm Calm - N/A   Clear
11:53 PM 62.6 °F 60.8 °F 94% 30.11 in 7.0 mi Calm Calm - N/A   Clear